Terminal Aerodrome Forecast
Issued by NWS Wilmington, NC

Home | Current Version | Previous Version | Text Only | Print | Product List | Glossary On
Versions: 1 2 3 4 5 6 7 8 9 10 11 12 13 14 15 16 17 18 19 20 21 22
000
FTUS42 KILM 121100 CCA
TAFLBT
TAF COR
KLBT 121146Z 1212/1312 00000KT 1/4SM FG BKN003
     FM121330 10005KT P6SM SCT040
     FM130000 VRB02KT P6SM SKC=

USA.gov is the U.S. government's official web portal to all federal, state and local government web resources and services.